Change the Weather History Date:

Saturday, March 29, 2014

  Actual Average (KCLL) Record (KCLL)
Temperature  
Mean Temperature 60 °F 64 °F  
Max Temperature 73 °F 75 °F 88 °F (1960)
Min Temperature 48 °F 54 °F 35 °F (1944)
Degree Days  
Heating Degree Days 4 3  
Month to date heating degree days 165  
Since 1 July heating degree days 1552  
Cooling Degree Days 0 3  
Month to date cooling degree days 52  
Year to date cooling degree days 80  
Growing Degree Days 10 (Base 50)    
Moisture  
Dew Point 42 °F    
Average Humidity 57    
Maximum Humidity 93    
Minimum Humidity 22    
Precipitation  
Precipitation 0.00 in 0.09 in 2.07 in (1926)
Month to date precipitation 2.97  
Year to date precipitation 9.06  
Sea Level Pressure  
Sea Level Pressure 30.20 in    
Wind  
Wind Speed 10 mph (NE)    
Max Wind Speed 15 mph    
Max Gust Speed 22 mph    
Visibility 10 miles    
Events      
T = Trace of Precipitation, MM = Missing Value Source: NWS Daily Summary

Daily Weather History Graph

Daily Weather History Graph

Search for Another Location

Airport or City:

Trip Planner

Search our weather history database for the weather conditions in past years. The results will help you decide how hot, cold, wet, or windy it might be!

Date:

Astronomy

Mar. 29, 2014 Rise Set
Actual Time 7:19 AM CDT 7:43 PM CDT
Civil Twilight 6:55 AM CDT 8:08 PM CDT
Nautical Twilight 6:27 AM CDT 8:36 PM CDT
Astronomical Twilight 5:58 AM CDT 9:05 PM CDT
Moon 6:24 AM CDT (3/29) 6:52 PM CDT (3/29)
Length of Visible Light 13h 12m
Length of Day
12h 24m
Waning Crescent, 2% of the Moon is Illuminated
Mar 29
Waning Crescent
Mar 30
New
Apr 7
First Quarter
Apr 15
Full
Apr 22
Last Quarter

Hourly Weather History & Observations

Time (CDT) Temp. Dew Point Humidity Pressure Visibility Wind Dir Wind Speed Gust Speed Precip Events Conditions
12:15 AM 60.8 °F 55.4 °F 82% 30.03 in 10.0 mi NE 10.4 mph 17.3 mph N/A   Clear
12:35 AM 60.8 °F 55.4 °F 82% 30.04 in 10.0 mi NNE 11.5 mph - N/A   Clear
12:55 AM 60.8 °F 55.4 °F 82% 30.05 in 10.0 mi NNE 12.7 mph 17.3 mph N/A   Clear
1:15 AM 59.0 °F 53.6 °F 82% 30.07 in 10.0 mi NNE 11.5 mph - N/A   Clear
1:35 AM 57.2 °F 51.8 °F 82% 30.07 in 10.0 mi NNE 9.2 mph - N/A   Clear
1:55 AM 57.2 °F 50.0 °F 77% 30.08 in 10.0 mi NNE 15.0 mph 19.6 mph N/A   Clear
2:15 AM 55.4 °F 48.2 °F 77% 30.07 in 10.0 mi NNE 12.7 mph - N/A   Clear
2:35 AM 55.4 °F 48.2 °F 77% 30.07 in 10.0 mi NNE 13.8 mph - N/A   Clear
2:55 AM 55.4 °F 48.2 °F 77% 30.08 in 10.0 mi NNE 13.8 mph 21.9 mph N/A   Clear
3:15 AM 53.6 °F 48.2 °F 82% 30.08 in 10.0 mi NNE 12.7 mph 18.4 mph N/A   Clear
3:35 AM 53.6 °F 46.4 °F 77% 30.08 in 10.0 mi NNE 12.7 mph 18.4 mph N/A   Clear
3:55 AM 53.6 °F 46.4 °F 77% 30.09 in 10.0 mi NNE 10.4 mph - N/A   Clear
4:15 AM 53.6 °F 46.4 °F 77% 30.11 in 10.0 mi NNE 9.2 mph 17.3 mph N/A   Clear
4:35 AM 51.8 °F 46.4 °F 82% 30.10 in 10.0 mi NNE 11.5 mph - N/A   Clear
4:55 AM 51.8 °F 46.4 °F 82% 30.11 in 10.0 mi NE 9.2 mph - N/A   Clear
5:15 AM 51.8 °F 46.4 °F 82% 30.11 in 10.0 mi NE 6.9 mph - N/A   Clear
5:35 AM 50.0 °F 46.4 °F 87% 30.12 in 10.0 mi NNE 8.1 mph - N/A   Clear
5:55 AM 50.0 °F 46.4 °F 87% 30.13 in 10.0 mi NNE 11.5 mph - N/A   Clear
6:15 AM 50.0 °F 46.4 °F 87% 30.13 in 10.0 mi NNE 11.5 mph - N/A   Clear
6:35 AM 48.2 °F 46.4 °F 93% 30.14 in 10.0 mi NNE 11.5 mph - N/A   Clear
6:55 AM 48.2 °F 44.6 °F 87% 30.15 in 10.0 mi NNE 13.8 mph - N/A   Clear
7:15 AM 48.2 °F 44.6 °F 87% 30.17 in 10.0 mi NNE 11.5 mph - N/A   Clear
7:35 AM 48.2 °F 44.6 °F 87% 30.18 in 10.0 mi NNE 11.5 mph - N/A   Clear
7:55 AM 48.2 °F 46.4 °F 93% 30.20 in 10.0 mi NNE 9.2 mph - N/A   Clear
8:15 AM 50.0 °F 46.4 °F 87% 30.22 in 10.0 mi NNE 10.4 mph - N/A   Clear
8:35 AM 50.0 °F 46.4 °F 87% 30.23 in 10.0 mi NNE 10.4 mph - N/A   Clear
8:55 AM 51.8 °F 46.4 °F 82% 30.24 in 10.0 mi NE 9.2 mph 17.3 mph N/A   Clear
9:15 AM 53.6 °F 46.4 °F 77% 30.25 in 10.0 mi NE 12.7 mph - N/A   Clear
9:35 AM 53.6 °F 48.2 °F 82% 30.26 in 10.0 mi NE 12.7 mph - N/A   Clear
9:55 AM 55.4 °F 48.2 °F 77% 30.27 in 10.0 mi NE 10.4 mph - N/A   Clear
10:15 AM 57.2 °F 48.2 °F 72% 30.28 in 10.0 mi NE 9.2 mph - N/A   Clear
10:35 AM 59.0 °F 50.0 °F 72% 30.29 in 10.0 mi NNE 9.2 mph - N/A   Clear
10:55 AM 60.8 °F 50.0 °F 68% 30.30 in 10.0 mi NNE 9.2 mph - N/A   Clear
11:15 AM 62.6 °F 50.0 °F 63% 30.30 in 10.0 mi NE 10.4 mph 16.1 mph N/A   Clear
11:35 AM 64.4 °F 50.0 °F 59% 30.30 in 10.0 mi NNE 9.2 mph - N/A   Clear
11:55 AM 64.4 °F 48.2 °F 56% 30.30 in 10.0 mi NE 8.1 mph 16.1 mph N/A   Clear
12:15 PM 66.2 °F 48.2 °F 52% 30.29 in 10.0 mi NE 9.2 mph - N/A   Clear
12:35 PM 68.0 °F 46.4 °F 46% 30.29 in 10.0 mi ENE 10.4 mph 16.1 mph N/A   Clear
12:55 PM 69.8 °F 46.4 °F 43% 30.29 in 10.0 mi NNE 12.7 mph 17.3 mph N/A   Clear
1:15 PM 69.8 °F 41.0 °F 35% 30.28 in 10.0 mi NE 9.2 mph - N/A   Clear
1:35 PM 71.6 °F 37.4 °F 29% 30.28 in 10.0 mi ENE 8.1 mph - N/A   Clear
1:55 PM 71.6 °F 37.4 °F 29% 30.27 in 10.0 mi NE 9.2 mph 18.4 mph N/A   Clear
2:15 PM 71.6 °F 35.6 °F 27% 30.27 in 10.0 mi ENE 10.4 mph 19.6 mph N/A   Clear
2:35 PM 71.6 °F 35.6 °F 27% 30.26 in 10.0 mi NE 11.5 mph 20.7 mph N/A   Clear
2:55 PM 73.4 °F 33.8 °F 23% 30.25 in 10.0 mi NE 10.4 mph - N/A   Clear
3:15 PM 73.4 °F 33.8 °F 23% 30.24 in 10.0 mi ENE 8.1 mph - N/A   Clear
3:35 PM 73.4 °F 32.0 °F 22% 30.23 in 10.0 mi ENE 8.1 mph 18.4 mph N/A   Clear
3:55 PM 73.4 °F 33.8 °F 23% 30.22 in 10.0 mi NE 9.2 mph - N/A   Clear
4:15 PM 73.4 °F 32.0 °F 22% 30.22 in 10.0 mi NNE 8.1 mph - N/A   Clear
4:35 PM 73.4 °F 32.0 °F 22% 30.21 in 10.0 mi ENE 8.1 mph - N/A   Clear
4:55 PM 73.4 °F 32.0 °F 22% 30.21 in 10.0 mi East 6.9 mph - N/A   Clear
5:15 PM 73.4 °F 32.0 °F 22% 30.21 in 10.0 mi ENE 8.1 mph - N/A   Clear
5:35 PM 73.4 °F 32.0 °F 22% 30.21 in 10.0 mi NE 5.8 mph - N/A   Clear
5:55 PM 71.6 °F 32.0 °F 23% 30.21 in 10.0 mi NE 8.1 mph - N/A   Clear
6:15 PM 71.6 °F 32.0 °F 23% 30.21 in 10.0 mi East 9.2 mph - N/A   Clear
6:35 PM 71.6 °F 32.0 °F 23% 30.21 in 10.0 mi NE 8.1 mph - N/A   Clear
6:55 PM 71.6 °F 32.0 °F 23% 30.21 in 10.0 mi NE 5.8 mph - N/A   Clear
7:15 PM 69.8 °F 33.8 °F 27% 30.22 in 10.0 mi ENE 4.6 mph - N/A   Clear
7:35 PM 68.0 °F 33.8 °F 28% 30.22 in 10.0 mi NE 3.5 mph - N/A   Clear
7:55 PM 66.2 °F 32.0 °F 28% 30.22 in 10.0 mi NE 3.5 mph - N/A   Clear
8:15 PM 64.4 °F 32.0 °F 30% 30.23 in 10.0 mi Calm Calm - N/A   Clear
8:35 PM 64.4 °F 32.0 °F 30% 30.23 in 10.0 mi NE 3.5 mph - N/A   Clear
8:55 PM 60.8 °F 33.8 °F 36% 30.23 in 10.0 mi NE 3.5 mph - N/A   Clear
9:15 PM 60.8 °F 33.8 °F 36% 30.24 in 10.0 mi Calm Calm - N/A   Clear
9:35 PM 57.2 °F 37.4 °F 48% 30.24 in 10.0 mi NE 3.5 mph - N/A   Clear
9:55 PM 59.0 °F 33.8 °F 39% 30.24 in 10.0 mi NE 3.5 mph - N/A   Clear
10:15 PM 55.4 °F 37.4 °F 51% 30.25 in 10.0 mi NE 3.5 mph - N/A   Clear
10:35 PM 55.4 °F 37.4 °F 51% 30.25 in 10.0 mi NE 3.5 mph - N/A   Clear
10:55 PM 53.6 °F 39.2 °F 58% 30.25 in 10.0 mi Calm Calm - N/A   Clear
11:15 PM 51.8 °F 39.2 °F 62% 30.25 in 10.0 mi Calm Calm - N/A   Clear
11:35 PM 51.8 °F 39.2 °F 62% 30.24 in 10.0 mi NE 3.5 mph - N/A   Clear
11:55 PM 51.8 °F 39.2 °F 62% 30.24 in 10.0 mi Calm Calm - N/A   Clear